SWQ04 YPDN-AYPY

Flight info

Callsign SWQ04
Flight time N/A
Altitude 35000
Route DN DCT VANDI DCT MASRA B598 ESKIM DCT GUMBU DCT PY
Aircraft B738/M-SDE2E3FGHIRWXY/LB1

Departure

Time N/A
Airport Darwin International Airport / RAAF Darwin (YPDN)

Arrival

Time 2026-04-22 11:36
Airport Port Moresby Jacksons International Airport (AYPY)
Time Latitude Longitude Altitude Speed Heading
2026-04-22 11:17 -9.77615 145.85867 34909 ft 425 kts 76°
2026-04-22 11:18 -9.75775 145.91117 34839 ft 422 kts 60°
2026-04-22 11:18 -9.74188 145.93612 34357 ft 421 kts 51°
2026-04-22 11:18 -9.72316 145.95933 33527 ft 432 kts 49°
2026-04-22 11:18 -9.70351 145.98283 32752 ft 439 kts 49°
2026-04-22 11:19 -9.68363 146.00650 32130 ft 442 kts 49°
2026-04-22 11:19 -9.66378 146.03027 31631 ft 441 kts 49°
2026-04-22 11:19 -9.64407 146.05408 31229 ft 439 kts 49°
2026-04-22 11:19 -9.62463 146.07774 30912 ft 434 kts 49°
2026-04-22 11:20 -9.60567 146.10089 30563 ft 430 kts 50°
2026-04-22 11:20 -9.58660 146.12421 30180 ft 428 kts 50°
2026-04-22 11:20 -9.56773 146.14729 29864 ft 424 kts 50°
2026-04-22 11:20 -9.54904 146.17015 29401 ft 416 kts 50°
2026-04-22 11:21 -9.53072 146.19255 28833 ft 410 kts 50°
2026-04-22 11:21 -9.51261 146.21467 28183 ft 406 kts 50°
2026-04-22 11:21 -9.49457 146.23672 27466 ft 405 kts 50°
2026-04-22 11:21 -9.47670 146.25854 26952 ft 399 kts 50°
2026-04-22 11:22 -9.45903 146.28011 26302 ft 397 kts 50°
2026-04-22 11:22 -9.44150 146.30151 25772 ft 392 kts 50°
2026-04-22 11:22 -9.42420 146.32264 25247 ft 387 kts 50°
2026-04-22 11:22 -9.40711 146.34349 24693 ft 383 kts 50°
2026-04-22 11:23 -9.39090 146.36488 24084 ft 382 kts 60°
2026-04-22 11:23 -9.38158 146.38979 23593 ft 378 kts 79°
2026-04-22 11:23 -9.38019 146.41610 22977 ft 374 kts 95°
2026-04-22 11:23 -9.38250 146.44214 22405 ft 370 kts 96°
2026-04-22 11:24 -9.38515 146.46799 21761 ft 368 kts 96°
2026-04-22 11:24 -9.38782 146.49368 21200 ft 365 kts 96°
2026-04-22 11:24 -9.39037 146.51902 20741 ft 358 kts 96°
2026-04-22 11:24 -9.39282 146.54412 20118 ft 358 kts 96°
2026-04-22 11:25 -9.39519 146.56930 19534 ft 357 kts 96°
2026-04-22 11:25 -9.39749 146.59416 19089 ft 351 kts 95°
2026-04-22 11:25 -9.39973 146.61865 18564 ft 349 kts 96°
2026-04-22 11:25 -9.40193 146.64287 17941 ft 350 kts 96°
2026-04-22 11:26 -9.40412 146.66718 17484 ft 343 kts 95°
2026-04-22 11:26 -9.40612 146.69083 17214 ft 331 kts 92°
2026-04-22 11:26 -9.40383 146.71370 16855 ft 323 kts 80°
2026-04-22 11:26 -9.39956 146.73592 16395 ft 320 kts 79°
2026-04-22 11:27 -9.39522 146.75792 15917 ft 317 kts 79°
2026-04-22 11:27 -9.39094 146.77980 15432 ft 316 kts 79°
2026-04-22 11:27 -9.38677 146.80147 15017 ft 311 kts 79°
2026-04-22 11:27 -9.38270 146.82285 14579 ft 308 kts 80°
2026-04-22 11:28 -9.37869 146.84417 14124 ft 307 kts 80°
2026-04-22 11:28 -9.37475 146.86526 13718 ft 303 kts 80°
2026-04-22 11:28 -9.37091 146.88586 13249 ft 300 kts 80°
2026-04-22 11:28 -9.36705 146.90657 12763 ft 298 kts 80°
2026-04-22 11:29 -9.36323 146.92713 12292 ft 296 kts 80°
2026-04-22 11:29 -9.35848 146.94731 11808 ft 294 kts 67°
2026-04-22 11:29 -9.34775 146.96484 11358 ft 292 kts 53°
2026-04-22 11:29 -9.33516 146.98090 10927 ft 290 kts 51°
2026-04-22 11:30 -9.32244 146.99668 10476 ft 288 kts 51°
2026-04-22 11:30 -9.30979 147.01232 10053 ft 286 kts 51°
2026-04-22 11:30 -9.29723 147.02785 9617 ft 284 kts 51°
2026-04-22 11:30 -9.28476 147.04327 9168 ft 281 kts 51°
2026-04-22 11:31 -9.27240 147.05852 8747 ft 278 kts 51°
2026-04-22 11:31 -9.26014 147.07359 8319 ft 276 kts 51°
2026-04-22 11:31 -9.24797 147.08850 7882 ft 274 kts 51°
2026-04-22 11:31 -9.23606 147.10304 7492 ft 270 kts 51°
2026-04-22 11:32 -9.22447 147.11796 7045 ft 269 kts 60°
2026-04-22 11:32 -9.21902 147.13578 6588 ft 267 kts 89°
2026-04-22 11:32 -9.22269 147.15389 6185 ft 264 kts 117°
2026-04-22 11:32 -9.23441 147.16788 5732 ft 263 kts 146°
2026-04-22 11:33 -9.25121 147.17420 5410 ft 257 kts 175°
2026-04-22 11:33 -9.26882 147.17171 4911 ft 260 kts 200°
2026-04-22 11:33 -9.28536 147.16429 4463 ft 259 kts 205°
2026-04-22 11:33 -9.30156 147.15629 4022 ft 259 kts 205°
2026-04-22 11:34 -9.31770 147.14844 3593 ft 257 kts 199°
2026-04-22 11:34 -9.33508 147.14756 3202 ft 249 kts 158°
2026-04-22 11:34 -9.34896 147.15710 2801 ft 244 kts 136°
2026-04-22 11:34 -9.36203 147.16874 2120 ft 254 kts 140°
2026-04-22 11:35 -9.37623 147.17964 1247 ft 258 kts 144°
2026-04-22 11:35 -9.39074 147.18965 766 ft 244 kts 148°
2026-04-22 11:35 -9.40440 147.19753 677 ft 213 kts 149°
2026-04-22 11:35 -9.41646 147.20495 388 ft 196 kts 148°
2026-04-22 11:36 -9.42745 147.21189 197 ft 176 kts 149°
2026-04-22 11:36 -9.43728 147.21786 90 ft 141 kts 149°
2026-04-22 11:36 -9.44382 147.22185 97 ft 78 kts 149°
2026-04-22 11:36 -9.44688 147.22372 100 ft 41 kts 149°
2026-04-22 11:37 -9.44922 147.22516 101 ft 37 kts 149°
2026-04-22 11:37 -9.45114 147.22647 105 ft 26 kts 140°
2026-04-22 11:37 -9.45185 147.22695 106 ft 10 kts 219°
2026-04-22 11:37 -9.45165 147.22663 105 ft 6 kts 327°
2026-04-22 11:38 -9.45124 147.22641 103 ft 8 kts 334°
2026-04-22 11:38 -9.45051 147.22599 103 ft 17 kts 330°
2026-04-22 11:38 -9.44722 147.22403 100 ft 36 kts 328°
2026-04-22 11:39 -9.44505 147.22264 101 ft 33 kts 327°
2026-04-22 11:39 -9.44529 147.22123 99 ft 23 kts 237°
2026-04-22 11:39 -9.44613 147.21990 105 ft 22 kts 237°
2026-04-22 11:39 -9.44695 147.21854 106 ft 22 kts 242°
2026-04-22 11:40 -9.44695 147.21750 107 ft 9 kts 285°
2026-04-22 11:40 -9.44702 147.21726 108 ft 0 kts 242°